Time,TemperatureF,DewpointF,PressureIn,WindDirection,WindDirectionDegrees,WindSpeedMPH,WindSpeedGustMPH,Humidity,HourlyPrecipIn,Conditions,Clouds,dailyrainin,SolarRadiationWatts/m^2,SoftwareType,DateUTC
2013-01-30 05:00:00,55.0,54.0,-100.00,SSE,160,1.0,-999.0,98,-99.99,,,-99.99,0.140000,,2013-01-30 11:00:00,
2013-01-30 05:52:00,55.0,54.0,-100.00,SSE,160,1.0,-999.0,98,-99.99,,,-99.99,0.140000,,2013-01-30 11:52:00,
2013-01-30 07:00:00,55.0,52.0,-100.00,South,190,5.0,-999.0,91,-99.99,,,-99.99,0.610000,,2013-01-30 13:00:00,
2013-01-30 07:53:00,55.0,52.0,-100.00,South,190,5.0,-999.0,91,-99.99,,,-99.99,0.610000,,2013-01-30 13:53:00,
2013-01-30 09:00:00,55.0,49.0,-100.00,SW,221,12.0,-999.0,78,-99.99,,,-99.99,57.919998,,2013-01-30 15:00:00,
2013-01-30 09:53:00,55.0,49.0,-100.00,SW,221,12.0,-999.0,78,-99.99,,,-99.99,57.919998,,2013-01-30 15:53:00,
2013-01-30 10:00:00,56.0,47.0,-100.00,SW,225,14.0,-999.0,72,-99.99,,,-99.99,160.399994,,2013-01-30 16:00:00,
2013-01-30 10:52:00,56.0,47.0,-100.00,SW,225,14.0,-999.0,72,-99.99,,,-99.99,160.399994,,2013-01-30 16:52:00,
2013-01-30 11:00:00,55.0,45.0,-100.00,SW,234,17.0,-999.0,68,-99.99,,,-99.99,232.000000,,2013-01-30 17:00:00,
2013-01-30 11:53:00,55.0,45.0,-100.00,SW,234,17.0,-999.0,68,-99.99,,,-99.99,232.000000,,2013-01-30 17:53:00,
2013-01-30 12:00:00,54.0,44.0,-100.00,WSW,243,16.0,-999.0,71,-99.99,,,-99.99,180.600006,,2013-01-30 18:00:00,
2013-01-30 12:53:00,54.0,44.0,-100.00,WSW,243,16.0,-999.0,71,-99.99,,,-99.99,180.600006,,2013-01-30 18:53:00,
2013-01-30 13:00:00,53.0,43.0,-100.00,WSW,247,17.0,-999.0,69,-99.99,,,-99.99,176.199997,,2013-01-30 19:00:00,
2013-01-30 13:53:00,53.0,43.0,-100.00,WSW,247,17.0,-999.0,69,-99.99,,,-99.99,176.199997,,2013-01-30 19:53:00,
2013-01-30 15:00:00,45.0,33.0,-100.00,West,270,21.0,-999.0,62,-99.99,,,-99.99,78.900002,,2013-01-30 21:00:00,
2013-01-30 15:53:00,45.0,33.0,-100.00,West,270,21.0,-999.0,62,-99.99,,,-99.99,78.900002,,2013-01-30 21:53:00,
2013-01-30 17:00:00,44.0,31.0,-100.00,West,269,18.0,-999.0,59,-99.99,,,-99.99,36.750000,,2013-01-30 23:00:00,
2013-01-30 17:52:00,44.0,31.0,-100.00,West,269,18.0,-999.0,59,-99.99,,,-99.99,36.750000,,2013-01-30 23:52:00,
2013-01-30 18:00:00,43.0,30.0,-100.00,West,269,16.0,-999.0,60,-99.99,,,-99.99,8.070000,,2013-01-31 00:00:00,
2013-01-30 18:53:00,43.0,30.0,-100.00,West,269,16.0,-999.0,60,-99.99,,,-99.99,8.070000,,2013-01-31 00:53:00,
2013-01-30 19:00:00,42.0,29.0,-100.00,West,273,15.0,-999.0,60,-99.99,,,-99.99,0.000000,,2013-01-31 01:00:00,
2013-01-30 19:52:00,42.0,29.0,-100.00,West,273,15.0,-999.0,60,-99.99,,,-99.99,0.000000,,2013-01-31 01:52:00,
2013-01-30 20:00:00,41.0,28.0,-100.00,West,273,13.0,-999.0,59,-99.99,,,-99.99,0.000000,,2013-01-31 02:00:00,
2013-01-30 21:00:00,40.0,29.0,-100.00,West,275,13.0,-999.0,65,-99.99,,,-99.99,0.000000,,2013-01-31 03:00:00,
2013-01-30 21:52:00,40.0,29.0,-100.00,West,275,13.0,-999.0,65,-99.99,,,-99.99,0.000000,,2013-01-31 03:52:00,
2013-01-30 22:00:00,40.0,29.0,-100.00,West,274,10.0,-999.0,65,-99.99,,,-99.99,0.000000,,2013-01-31 04:00:00,
2013-01-30 22:52:00,40.0,29.0,-100.00,West,274,10.0,-999.0,65,-99.99,,,-99.99,0.000000,,2013-01-31 04:52:00,